Home   Weather   Hirtshals   Past weeks
Flag for Denmark

Past Weather in Hirtshals, Denmark — Yesterday and Last 2 Weeks

Now
59 °F

Cool.


Feels Like: 59 °F
Forecast: 66 / 54 °F
Wind: 2 mph from North

Location: Aalborg

Current Time: May 20, 2019 at 9:25:07 am

Latest Report: May 20, 2019 at 8:00 am


Visibility: N/A

Pressure: 29.79 "Hg

Humidity: 97%

Dew Point: 58 °F

Location of HirtshalsLocation

Past Weather in Hirtshals — Graph

°F

Hirtshals Temperature Yesterday

Maximum temperature yesterday: 68 °F (at 6:00 pm)
Minimum temperature yesterday: 44 °F (at 4:00 am)
Average temperature yesterday: 58 °F

High & Low Weather Summary for the Past Weeks

 TemperatureHumidityPressure
High68 °F (May 19, 6:00 pm)99% (May 5, 9:00 am)30.66 "Hg (May 5, 9:00 am)
Low33 °F (May 15, 5:00 am)31% (May 16, 12:00 pm)29.38 "Hg (May 9, 6:00 am)
Average49 °F76%30.02 "Hg
* Reported May 5 7:00 am — May 20 7:00 am, Hirtshals. Weather by CustomWeather, © 2019

Note: Actual official high and low records may vary slightly from our data, if they occured in-between our weather recording intervals... More about our weather records

Advertising

Hirtshals Weather History for the Previous 24 Hours

Scroll right to see more
 ConditionsComfort  
Time TempWeatherWind HumidityBarometerVisibility
7:00 am
Mon, May 20
57 °FCool.5 mph96%29.79 "HgN/A
6:00 am55 °FCool.5 mph95%29.78 "HgN/A
5:00 am56 °FCool.3 mph94%29.78 "HgN/A
4:00 am57 °FCool.6 mph91%29.79 "HgN/A
3:00 am58 °FCool.5 mph89%29.80 "HgN/A
2:00 am57 °FCool.3 mph88%29.80 "HgN/A
1:00 am57 °FCool.3 mph89%29.82 "HgN/A
12:00 am57 °FCool.3 mph85%29.83 "HgN/A
11:00 pm
Sun, May 19
58 °FCool.2 mph86%29.83 "HgN/A
10:00 pm61 °FCool.2 mph84%29.84 "HgN/A
9:00 pm64 °FMild.6 mph74%29.84 "HgN/A
8:00 pm67 °FMild.5 mph65%29.83 "HgN/A
7:00 pm68 °FMild.7 mph63%29.83 "HgN/A
6:00 pm68 °FMild.7 mph65%29.84 "HgN/A
5:00 pm67 °FMild.8 mph69%29.85 "HgN/A
4:00 pm66 °FMild.12 mph75%29.86 "HgN/A
3:00 pm62 °FCool.10 mph84%29.87 "HgN/A
2:00 pm62 °FCool.12 mph85%29.88 "HgN/A
1:00 pm59 °FCool.8 mph91%29.88 "HgN/A
12:00 pm57 °FCool.8 mph93%29.88 "HgN/A
11:00 am59 °FCool.10 mph91%29.88 "HgN/A
10:00 am60 °FCool.8 mph89%29.87 "HgN/A
9:00 am61 °FCool.8 mph87%29.87 "HgN/A
Weather by CustomWeather, © 2019

See weather overview